Regional Weather Roundup
Issued by NWS

Home | Current Version | Previous Version | Graphics & Text | Print | Product List | Glossary On
Versions: 1 2 3 4 5 6 7 8 9 10 11 12 13 14 15 16 17 18 19 20 21 22 23 24 25 26 27 28 29 30 31 32 33 34 35 36 37 38 39 40 41 42 43 44 45 46 47 48 49 50
000
ASUS44 KMEG 301810
RWRTN
TENNESSEE HOURLY STATE WEATHER ROUNDUP
NATIONAL WEATHER SERVICE MEMPHIS TN
100 PM CDT TUE SEP 30 2014

TNZ002-004-019-021-049-052-054-088>092-301900-
WEST TENNESSEE

CITY           SKY/WX    TMP DP  RH WIND       PRES   REMARKS
MEMPHIS INTL   PTSUNNY   87  60  40 SW5       29.92F
NWS MEMPHIS      N/A     86 N/A N/A MISG        N/A
JACKSON        SUNNY     85  58  39 S6        29.93F
DYERSBURG      MOSUNNY   84  55  37 CALM      29.94F
UNION CITY     SUNNY     84  54  34 VRB6      29.93F
PARIS          SUNNY     82  52  34 VRB5      29.94F
HUNTINGDON     MOSUNNY   81  51  35 N6        29.93F
LEXINGTON      MOSUNNY   82  57  42 E5        29.93F
SAVANNAH       MOSUNNY   86  63  45 VRB5      29.93F
$$

TNZ008-025-027-028-033-062-065-066-301900-
NORTH MIDDLE TENNESSEE

CITY           SKY/WX    TMP DP  RH WIND       PRES   REMARKS
NASHVILLE      MOSUNNY   85  52  32 CALM      29.94F
DICKSON        MOSUNNY   82  50  32 CALM      29.95F
PORTLAND       SUNNY     82  48  30 N7        29.94F
CLARKSVILLE    SUNNY     86  52  30 NW6       29.94F
LEBANON        SUNNY     83  49  30 NW9       29.94F
SMYRNA         MOSUNNY   86  52  30 N12       29.94F
MURFREESBORO   SUNNY     83  51  32 VRB3      29.94
COOKEVILLE     MOSUNNY   82  61  47 NW5       29.96F
LIVINGSTON     SUNNY     76  55  47 VRB3      29.98F
GALLATIN       MOSUNNY   85  53  33 N7        29.95F
CROSSVILLE     MOSUNNY   76  55  48 NW6       30.00S
$$

TNZ061-075-076-078-094-096-097-301900-
SOUTH MIDDLE TENNESSEE

CITY           SKY/WX    TMP DP  RH WIND       PRES   REMARKS
LEWISBURG      PTSUNNY   84  60  44 CALM      29.94F
FAYETTEVILLE   SUNNY     81  59  47 CALM      29.95F
TULLAHOMA      PTSUNNY   81  59  47 NW6       29.97F
WINCHESTER     SUNNY     81  59  47 CALM      29.95F
MCMINNVILLE    MOSUNNY   82  61  47 NW3       29.96F
COLUMBIA       MOSUNNY   86  59  39 N8        29.93F
SHELBYVILLE    MOSUNNY   84  61  45 NW7       29.95F
$$

TNZ017-018-042-046-047-301900-
NORTHEAST TENNESSEE

CITY           SKY/WX    TMP DP  RH WIND       PRES   REMARKS
TRI CITIES     MOSUNNY   79  54  41 VRB3      29.96F
ELIZABETHTON   PTCLDY    75  54  46 N9        29.96F
$$

TNZ012-013-036-069-073-074-301900-
CENTRAL EAST TENNESSEE

CITY           SKY/WX    TMP DP  RH WIND       PRES   REMARKS
KNOXVILLE      MOSUNNY   78  63  59 VRB5      29.95F
OAK RIDGE      SUNNY     75  64  68 CALM      29.97F
GATLINBURG     PTCLDY    81  61  50 N5        29.94F
$$

TNZ083-085-099-301900-
SOUTHEAST TENNESSEE

CITY           SKY/WX    TMP DP  RH WIND       PRES   REMARKS
CHATTANOOGA    MOSUNNY   81  61  50 E3        29.94F
$$

SKY/WX REPORTED AS FAIR MEANS FEW OR NO CLOUDS BELOW
12 THOUSAND FEET.



USA.gov is the U.S. government's official web portal to all federal, state and local government web resources and services.